Terminal Aerodrome Forecast
Issued by NWS

Home | Current Version | Previous Version | Text Only | Print | Product List | Glossary Off
Versions: 1 2 3 4 5 6 7 8 9 10 11 12 13 14 15 16 17 18 19

000
FTUS43 KTOP 180500
TAFMHK
TAF
KMHK 180520Z 1806/1906 11003KT P6SM BKN100
     FM180700 17004KT 6SM -SHRA VCTS OVC040CB
     FM181200 15003KT 4SM -RA VCTS OVC025CB
     FM181800 17008KT P6SM VCTS BKN050CB=

USA.gov is the U.S. government's official web portal to all federal, state and local government web resources and services.